Hourly Weather Bolshie Koryaki

Today, 31 July, Saturday

Time Temperature Precipitation Wind Pressure Humidity
00:00 +17°C° 0 mm 3 mps 737 mmHg 77%
01:00 +17°C° 0 mm 3 mps 737 mmHg 77%
02:00 +17°C° 0 mm 3 mps 737 mmHg 76%
03:00 +16°C° 0 mm 3 mps 737 mmHg 78%
04:00 +16°C° 0 mm 3 mps 737 mmHg 79%
05:00 +14°C° 0 mm 3 mps 737 mmHg 81%
06:00 +17°C° 0 mm 4 mps 737 mmHg 72%
07:00 +19°C° 0 mm 4 mps 737 mmHg 62%
08:00 +21°C° 0 mm 5 mps 738 mmHg 53%
09:00 +22°C° 0 mm 5 mps 738 mmHg 48%
10:00 +23°C° 0 mm 6 mps 738 mmHg 42%
11:00 +26°C° 0 mm 6 mps 738 mmHg 37%
12:00 +26°C° 0 mm 6 mps 738 mmHg 36%
13:00 +27°C° 0 mm 6 mps 738 mmHg 35%
14:00 +27°C° 0 mm 6 mps 738 mmHg 35%
15:00 +27°C° 0 mm 5 mps 738 mmHg 36%
16:00 +27°C° 0 mm 5 mps 738 mmHg 38%
17:00 +27°C° 0 mm 4 mps 739 mmHg 40%
18:00 +25°C° 0 mm 3 mps 739 mmHg 48%
19:00 +22°C° 0 mm 3 mps 739 mmHg 55%
20:00 +20°C° 0 mm 2 mps 739 mmHg 63%
21:00 +19°C° 0 mm 2 mps 739 mmHg 66%
22:00 +18°C° 0 mm 2 mps 739 mmHg 68%
23:00 +17°C° 0 mm 2 mps 739 mmHg 71%

Tomorrow, 1 August, Sunday

Time Temperature Precipitation Wind Pressure Humidity
00:00 +17°C° 0 mm 2 mps 739 mmHg 73%
01:00 +17°C° 0 mm 2 mps 739 mmHg 75%
02:00 +16°C° 0 mm 2 mps 739 mmHg 77%
03:00 +17°C° 0.2 mm 2 mps 739 mmHg 81%
04:00 +17°C° 0.2 mm 2 mps 740 mmHg 86%
05:00 +17°C° 0.2 mm 2 mps 740 mmHg 90%
06:00 +17°C° 0.2 mm 2 mps 739 mmHg 92%
07:00 +17°C° 0.2 mm 2 mps 739 mmHg 94%
08:00 +17°C° 0.2 mm 2 mps 739 mmHg 95%
09:00 +19°C° 0.2 mm 3 mps 739 mmHg 87%
10:00 +22°C° 0.2 mm 4 mps 739 mmHg 78%
11:00 +25°C° 0.2 mm 4 mps 739 mmHg 70%
12:00 +26°C° 0.2 mm 5 mps 739 mmHg 59%
13:00 +28°C° 0.2 mm 5 mps 739 mmHg 48%
14:00 +29°C° 0.2 mm 5 mps 739 mmHg 37%
15:00 +28°C° 0 mm 5 mps 739 mmHg 38%
16:00 +28°C° 0 mm 4 mps 739 mmHg 39%
17:00 +27°C° 0 mm 4 mps 740 mmHg 40%
18:00 +25°C° 0 mm 3 mps 740 mmHg 48%
19:00 +22°C° 0 mm 3 mps 740 mmHg 55%
20:00 +20°C° 0 mm 2 mps 740 mmHg 63%
21:00 +19°C° 0 mm 2 mps 740 mmHg 65%
22:00 +19°C° 0 mm 1 mps 740 mmHg 67%
23:00 +18°C° 0 mm 1 mps 740 mmHg 69%

Day after tomorrow, 2 August, Monday

Time Temperature Precipitation Wind Pressure Humidity
00:00 +19°C° 0 mm 1 mps 740 mmHg 68%
01:00 +19°C° 0 mm 1 mps 740 mmHg 67%
02:00 +19°C° 0 mm 1 mps 739 mmHg 66%
03:00 +19°C° 0 mm 1 mps 739 mmHg 69%
04:00 +18°C° 0 mm 1 mps 739 mmHg 71%
05:00 +17°C° 0 mm 2 mps 739 mmHg 74%
06:00 +18°C° 0.6 mm 2 mps 738 mmHg 80%
07:00 +18°C° 0.6 mm 2 mps 738 mmHg 86%
08:00 +19°C° 0.6 mm 3 mps 738 mmHg 92%
09:00 +20°C° 0.4 mm 3 mps 737 mmHg 92%
10:00 +20°C° 0.4 mm 2 mps 737 mmHg 92%
11:00 +20°C° 0.4 mm 2 mps 737 mmHg 93%
12:00 +21°C° 0.9 mm 3 mps 736 mmHg 90%
13:00 +22°C° 0.9 mm 3 mps 736 mmHg 88%
14:00 +23°C° 0.9 mm 4 mps 735 mmHg 85%
15:00 +23°C° 0.7 mm 4 mps 735 mmHg 86%
16:00 +22°C° 0.7 mm 4 mps 735 mmHg 87%
17:00 +22°C° 0.7 mm 4 mps 735 mmHg 87%
18:00 +20°C° 0.1 mm 3 mps 735 mmHg 90%
19:00 +19°C° 0.1 mm 3 mps 735 mmHg 92%
20:00 +17°C° 0.1 mm 3 mps 735 mmHg 94%
21:00 +16°C° 0 mm 2 mps 736 mmHg 95%
22:00 +16°C° 0 mm 2 mps 736 mmHg 96%
23:00 +16°C° 0 mm 2 mps 736 mmHg 97%

3 August, Tuesday

Time Temperature Precipitation Wind Pressure Humidity
00:00 +15°C° 0.1 mm 2 mps 737 mmHg 96%
01:00 +15°C° 0.1 mm 2 mps 737 mmHg 96%
02:00 +14°C° 0.1 mm 3 mps 737 mmHg 95%
03:00 +14°C° 0.2 mm 3 mps 737 mmHg 96%
04:00 +14°C° 0.2 mm 3 mps 738 mmHg 97%
05:00 +14°C° 0.2 mm 3 mps 738 mmHg 98%
06:00 +16°C° 0 mm 3 mps 738 mmHg 94%
07:00 +16°C° 0 mm 3 mps 739 mmHg 90%
08:00 +17°C° 0 mm 3 mps 739 mmHg 86%
09:00 +18°C° 0.2 mm 3 mps 739 mmHg 78%
10:00 +19°C° 0.2 mm 4 mps 740 mmHg 69%
11:00 +20°C° 0.2 mm 4 mps 740 mmHg 61%
12:00 +21°C° 0.1 mm 4 mps 740 mmHg 58%
13:00 +21°C° 0.1 mm 4 mps 740 mmHg 55%
14:00 +22°C° 0.1 mm 4 mps 740 mmHg 52%
15:00 +21°C° 0.1 mm 4 mps 740 mmHg 57%
16:00 +21°C° 0.1 mm 4 mps 741 mmHg 62%
17:00 +20°C° 0.1 mm 4 mps 741 mmHg 67%
18:00 +18°C° 0.3 mm 3 mps 741 mmHg 76%
19:00 +17°C° 0.3 mm 2 mps 741 mmHg 84%
20:00 +15°C° 0.3 mm 2 mps 742 mmHg 93%
21:00 +14°C° 0 mm 2 mps 742 mmHg 94%
22:00 +14°C° 0 mm 2 mps 742 mmHg 95%
23:00 +13°C° 0 mm 2 mps 743 mmHg 96%

4 August, Wednesday

Time Temperature Precipitation Wind Pressure Humidity
00:00 +13°C° 0 mm 2 mps 743 mmHg 96%
01:00 +13°C° 0 mm 1 mps 743 mmHg 96%
02:00 +12°C° 0 mm 1 mps 744 mmHg 96%
03:00 +12°C° 0 mm 1 mps 744 mmHg 96%
04:00 +12°C° 0 mm 1 mps 744 mmHg 96%
05:00 +12°C° 0 mm 1 mps 744 mmHg 96%
06:00 +14°C° 0 mm 1 mps 745 mmHg 90%
07:00 +15°C° 0 mm 1 mps 745 mmHg 84%
08:00 +18°C° 0 mm 1 mps 745 mmHg 78%
09:00 +20°C° 0.1 mm 1 mps 746 mmHg 68%
10:00 +22°C° 0.1 mm 1 mps 746 mmHg 58%
11:00 +24°C° 0.1 mm 1 mps 746 mmHg 47%
12:00 +23°C° 0 mm 1 mps 746 mmHg 49%
13:00 +23°C° 0 mm 1 mps 746 mmHg 50%
14:00 +20°C° 0 mm 0 mps 746 mmHg 52%
15:00 +22°C° 0 mm 1 mps 746 mmHg 52%
16:00 +22°C° 0 mm 1 mps 746 mmHg 52%
17:00 +22°C° 0 mm 1 mps 746 mmHg 51%
18:00 +21°C° 0 mm 1 mps 746 mmHg 57%
19:00 +19°C° 0 mm 1 mps 746 mmHg 62%
20:00 +16°C° 0 mm 1 mps 746 mmHg 68%
21:00 +16°C° 0 mm 1 mps 746 mmHg 71%
22:00 +15°C° 0 mm 1 mps 746 mmHg 73%
23:00 +14°C° 0 mm 1 mps 746 mmHg 76%

5 August, Thursday

Time Temperature Precipitation Wind Pressure Humidity
00:00 +14°C° 0 mm 2 mps 746 mmHg 77%
01:00 +13°C° 0 mm 2 mps 746 mmHg 78%
02:00 +13°C° 0 mm 2 mps 746 mmHg 80%
03:00 +13°C° 0 mm 2 mps 746 mmHg 80%
04:00 +13°C° 0 mm 2 mps 746 mmHg 79%
05:00 +13°C° 0 mm 2 mps 746 mmHg 79%
06:00 +15°C° 0 mm 2 mps 746 mmHg 71%
07:00 +17°C° 0 mm 3 mps 746 mmHg 64%
08:00 +20°C° 0 mm 3 mps 745 mmHg 56%
09:00 +21°C° 0 mm 4 mps 745 mmHg 50%
10:00 +23°C° 0 mm 4 mps 745 mmHg 45%
11:00 +25°C° 0 mm 4 mps 745 mmHg 39%
12:00 +25°C° 0 mm 4 mps 744 mmHg 42%
13:00 +25°C° 0 mm 4 mps 744 mmHg 45%
14:00 +23°C° 0 mm 4 mps 744 mmHg 48%
15:00 +21°C° 0.2 mm 4 mps 744 mmHg 62%
16:00 +19°C° 0.2 mm 4 mps 744 mmHg 75%
17:00 +17°C° 0.2 mm 3 mps 744 mmHg 89%
18:00 +17°C° 0.9 mm 4 mps 743 mmHg 92%
19:00 +15°C° 0.9 mm 4 mps 743 mmHg 94%
20:00 +15°C° 0.9 mm 4 mps 743 mmHg 97%
21:00 +16°C° 0.5 mm 3 mps 743 mmHg 97%
22:00 +16°C° 0.5 mm 3 mps 742 mmHg 97%
23:00 +16°C° 0.5 mm 3 mps 742 mmHg 97%
Show more

We Need Your Consent

Meteoprog and our Service Providers may store and access personal data such as cookies, device identifiers or other similar technologies on your device and process such data to personalise content and ads, as well as provide social media features and to analyse the traffic.

  • Store and/or access information on your device

    Cookies, device identifiers or other information can be stored or accessed on your device for the purposes indicated above.

  • Personalised ads and content, ad and content measurement, audience insights, and products development

    Ads and content can be personalised based on a profile. More data can be added to better personalise ads and content. Ad and content performance can be measured. Insights about the audience who saw the ads and content can be derived. Such data can be used to develop or improve user’s experience, systems and software.

By clicking ‘I Agree’ you will allow the use of indicated cookies, device identifiers, web beacons or other similar technologies. Your settings can be changed in the browser on your device.

For certain purposes, legitimate interests may be relied on, rather than consent. You can read more about this in our Privacy and Cookie Policy.